Weather History for Yakima, WA

Change the Weather History Date:

Friday, May 17, 2013

  Actual Average Record
Temperature  
Mean Temperature 64 °F 58 °F  
Max Temperature 70 °F 73 °F 98 °F (2008)
Min Temperature 58 °F 42 °F 29 °F (2003)
Degree Days  
Heating Degree Days 1 8  
Month to date heating degree days 57 172  
Since 1 July heating degree days 5013 5854  
Cooling Degree Days 0 1  
Month to date cooling degree days 51 6  
Year to date cooling degree days 52 7  
Growing Degree Days 12 (Base 50)    
Moisture  
Dew Point 42 °F    
Average Humidity 50    
Maximum Humidity 60    
Minimum Humidity 39    
Precipitation  
Precipitation T in 0.02 in 0.59 in (1974)
Month to date precipitation T 0.30  
Year to date precipitation 1.30 3.39  
Snow  
Snow 0.00 in 0.00 in 0.00 in (2002)
Month to date snowfall 0.0 0.0  
Year to date snowfall 1.1 8.6  
Since 1 July snowfall 15.3 21.6  
Snow Depth 0.00 in    
Sea Level Pressure  
Sea Level Pressure 29.90 in    
Wind  
Wind Speed 7 mph (NW)    
Max Wind Speed 18 mph    
Max Gust Speed 22 mph    
Visibility 10 miles    
Events      
T = Trace of Precipitation, MM = Missing Value Source: NWS Daily Summary

Daily Weather History Graph

Daily Weather History Graph

Search for Another Location

Airport:

Trip Planner

Search our weather history database for the weather conditions in past years. The results will help you decide how hot, cold, wet, or windy it might be!

Date:

Astronomy

May. 17, 2013 Rise Set
Actual Time 5:25 AM PDT 8:32 PM PDT
Civil Twilight 4:49 AM PDT 9:08 PM PDT
Nautical Twilight 4:03 AM PDT 9:55 PM PDT
Astronomical Twilight 3:06 AM PDT 10:52 PM PDT
Moon 12:14 PM PDT (5/17) 1:17 AM PDT (5/17)
Length of Visible Light 16h 18m
Length of Day
15h 06m
Waxing Crescent, 46% of the Moon is Illuminated
May 17
Waxing Crescent
May 17
First Quarter
May 24
Full
May 31
Last Quarter
Jun 8
New

Hourly Weather History & Observations

Time (PDT) Temp. Dew Point Humidity Pressure Visibility Wind Dir Wind Speed Gust Speed Precip Events Conditions
12:53 AM 61.0 °F 43.0 °F 52% 29.87 in 10.0 mi NW 6.9 mph - N/A   Mostly Cloudy
1:53 AM 61.0 °F 43.0 °F 52% 29.86 in 10.0 mi NW 8.1 mph - N/A   Overcast
2:53 AM 60.1 °F 43.0 °F 53% 29.86 in 10.0 mi NNW 6.9 mph - N/A   Overcast
3:53 AM 60.1 °F 43.0 °F 53% 29.86 in 10.0 mi NNW 5.8 mph - N/A   Mostly Cloudy
5:53 AM 59.0 °F 43.0 °F 55% 29.87 in 10.0 mi North 3.5 mph - N/A   Overcast
6:53 AM 60.1 °F 43.0 °F 53% 29.89 in 10.0 mi NNW 6.9 mph - N/A   Mostly Cloudy
7:53 AM 60.1 °F 46.0 °F 60% 29.90 in 10.0 mi WSW 4.6 mph - N/A   Mostly Cloudy
8:53 AM 62.1 °F 44.1 °F 52% 29.90 in 10.0 mi NW 10.4 mph - N/A   Overcast
9:53 AM 66.9 °F 44.1 °F 44% 29.90 in 10.0 mi NNW 10.4 mph - N/A   Mostly Cloudy
10:53 AM 66.0 °F 44.1 °F 45% 29.90 in 10.0 mi NW 3.5 mph - N/A   Mostly Cloudy
11:53 AM 68.0 °F 44.6 °F 43% 29.91 in 10.0 mi NW 9.2 mph 17.3 mph N/A   Mostly Cloudy
12:53 PM 66.9 °F 43.0 °F 42% 29.90 in 10.0 mi SW 3.5 mph - N/A   Mostly Cloudy
1:53 PM 68.0 °F 44.1 °F 42% 29.89 in 10.0 mi WSW 5.8 mph - N/A   Mostly Cloudy
2:53 PM 68.0 °F 44.1 °F 42% 29.89 in 10.0 mi NW 3.5 mph - N/A   Overcast
3:53 PM 68.0 °F 43.0 °F 40% 29.88 in 10.0 mi NW 12.7 mph 16.1 mph N/A   Overcast
4:53 PM 68.0 °F 43.0 °F 40% 29.89 in 10.0 mi NNW 18.4 mph 21.9 mph N/A   Mostly Cloudy
5:53 PM 64.9 °F 42.1 °F 43% 29.90 in 10.0 mi NW 16.1 mph 23.0 mph N/A   Mostly Cloudy
6:53 PM 63.0 °F 41.0 °F 45% 29.91 in 10.0 mi NW 12.7 mph - N/A   Overcast
7:53 PM 61.0 °F 42.1 °F 50% 29.93 in 10.0 mi NW 11.5 mph 20.7 mph N/A   Mostly Cloudy
8:53 PM 59.0 °F 39.0 °F 48% 29.95 in 10.0 mi WNW 5.8 mph - N/A   Overcast
9:53 PM 59.0 °F 39.0 °F 48% 29.96 in 10.0 mi NNW 8.1 mph - N/A   Overcast
10:53 PM 55.9 °F 39.0 °F 53% 29.97 in 10.0 mi NNW 4.6 mph - N/A   Clear
11:53 PM 51.1 °F 37.9 °F 61% 29.97 in 10.0 mi Calm Calm - N/A   Clear